N65DT KSHR-KDEW

Flight info

Callsign N65DT
Flight time 2h 41m
Altitude 14000
Route SHR REEPO SWEDD OCEDA MLP COE
Aircraft AEST/L-SDFGRY/S

Departure

Time 2026-05-04 20:52
Airport Sheridan County Airport (KSHR)

Arrival

Time 2026-05-04 23:33
Airport Deer Park Airport (KDEW)
Time Latitude Longitude Altitude Speed Heading
2026-05-04 20:30 44.77372 -106.97119 4005 ft 0 kts 80°
2026-05-04 20:43 44.77354 -106.97108 4002 ft 8 kts 237°
2026-05-04 20:43 44.77400 -106.97190 4005 ft 11 kts 319°
2026-05-04 20:43 44.77415 -106.97291 4004 ft 14 kts 248°
2026-05-04 20:43 44.77367 -106.97452 4001 ft 21 kts 249°
2026-05-04 20:44 44.77302 -106.97683 3997 ft 28 kts 247°
2026-05-04 20:44 44.77226 -106.97946 3993 ft 28 kts 248°
2026-05-04 20:44 44.77150 -106.98174 3989 ft 25 kts 218°
2026-05-04 20:44 44.76976 -106.98118 3986 ft 30 kts 156°
2026-05-04 20:45 44.76780 -106.97998 3983 ft 32 kts 156°
2026-05-04 20:45 44.76580 -106.97872 3981 ft 31 kts 157°
2026-05-04 20:45 44.76385 -106.97754 3979 ft 30 kts 156°
2026-05-04 20:45 44.76196 -106.97638 3977 ft 30 kts 156°
2026-05-04 20:46 44.76003 -106.97519 3974 ft 31 kts 157°
2026-05-04 20:46 44.75855 -106.97389 3973 ft 18 kts 98°
2026-05-04 20:46 44.75833 -106.97370 3973 ft 0 kts 314°
2026-05-04 20:50 44.75829 -106.97394 3973 ft 10 kts 210°
2026-05-04 20:50 44.75734 -106.97347 3971 ft 17 kts 155°
2026-05-04 20:50 44.75660 -106.97385 3970 ft 13 kts 251°
2026-05-04 20:50 44.75663 -106.97517 3968 ft 19 kts 323°
2026-05-04 20:51 44.75959 -106.97701 3974 ft 72 kts 336°
2026-05-04 20:51 44.76493 -106.98029 3991 ft 91 kts 336°
2026-05-04 20:51 44.77133 -106.98423 4080 ft 109 kts 338°
2026-05-04 20:51 44.77841 -106.98916 4298 ft 119 kts 328°
2026-05-04 20:52 44.78501 -106.99646 4581 ft 123 kts 323°
2026-05-04 20:52 44.79171 -107.00419 4783 ft 125 kts 323°
2026-05-04 20:52 44.79851 -107.01183 4997 ft 126 kts 324°
2026-05-04 20:52 44.80547 -107.01936 5232 ft 126 kts 324°
2026-05-04 20:53 44.81248 -107.02700 5478 ft 127 kts 323°
2026-05-04 20:53 44.81950 -107.03498 5704 ft 132 kts 322°
2026-05-04 20:53 44.82675 -107.04353 5923 ft 139 kts 322°
2026-05-04 20:53 44.83430 -107.05209 6128 ft 141 kts 323°
2026-05-04 20:54 44.84195 -107.06094 6326 ft 142 kts 315°
2026-05-04 20:54 44.84765 -107.07252 6522 ft 147 kts 302°
2026-05-04 20:54 44.85256 -107.08497 6732 ft 147 kts 308°
2026-05-04 20:54 44.86069 -107.09273 6959 ft 143 kts 345°
2026-05-04 20:55 44.87062 -107.09292 7172 ft 145 kts
2026-05-04 20:55 44.88068 -107.08990 7374 ft 150 kts
2026-05-04 20:55 44.89079 -107.08577 7609 ft 152 kts 10°
2026-05-04 20:55 44.90122 -107.08427 7883 ft 150 kts 346°
2026-05-04 20:56 44.91048 -107.08970 8181 ft 141 kts 317°
2026-05-04 20:56 44.91616 -107.10057 8427 ft 139 kts 292°
2026-05-04 20:56 44.91926 -107.11363 8643 ft 141 kts 290°
2026-05-04 20:56 44.92231 -107.12693 8847 ft 144 kts 290°
2026-05-04 20:57 44.92554 -107.14030 9058 ft 144 kts 291°
2026-05-04 20:57 44.92888 -107.15350 9274 ft 142 kts 291°
2026-05-04 20:57 44.93198 -107.16681 9454 ft 143 kts 289°
2026-05-04 20:57 44.93483 -107.18028 9624 ft 143 kts 289°
2026-05-04 20:58 44.93773 -107.19379 9800 ft 144 kts 289°
2026-05-04 20:58 44.94061 -107.20728 9974 ft 144 kts 289°
2026-05-04 20:58 44.94348 -107.22080 10127 ft 143 kts 289°
2026-05-04 20:58 44.94633 -107.23419 10271 ft 142 kts 289°
2026-05-04 20:59 44.94913 -107.24740 10391 ft 142 kts 289°
2026-05-04 20:59 44.95201 -107.26095 10535 ft 142 kts 289°
2026-05-04 20:59 44.95484 -107.27431 10674 ft 142 kts 289°
2026-05-04 20:59 44.95767 -107.28768 10811 ft 142 kts 289°
2026-05-04 21:00 44.96047 -107.30088 10935 ft 142 kts 289°
2026-05-04 21:00 44.96331 -107.31424 11059 ft 142 kts 289°
2026-05-04 21:00 44.96615 -107.32756 11170 ft 142 kts 289°
2026-05-04 21:00 44.96902 -107.34085 11290 ft 141 kts 289°
2026-05-04 21:01 44.97190 -107.35413 11404 ft 141 kts 289°
2026-05-04 21:01 44.97478 -107.36737 11514 ft 141 kts 289°
2026-05-04 21:01 44.97765 -107.38057 11626 ft 140 kts 289°
2026-05-04 21:01 44.98052 -107.39371 11733 ft 140 kts 289°
2026-05-04 21:02 44.98339 -107.40686 11837 ft 140 kts 289°
2026-05-04 21:02 44.98626 -107.42001 11944 ft 140 kts 289°
2026-05-04 21:02 44.98913 -107.43310 12042 ft 140 kts 289°
2026-05-04 21:02 44.99201 -107.44619 12128 ft 140 kts 289°
2026-05-04 21:03 44.99392 -107.45486 12176 ft 139 kts 289°
2026-05-04 21:03 44.99782 -107.47256 12319 ft 144 kts 289°
2026-05-04 21:03 45.00080 -107.48604 12413 ft 144 kts 289°
2026-05-04 21:03 45.00517 -107.49856 12540 ft 141 kts 304°
2026-05-04 21:04 45.01101 -107.51010 12537 ft 149 kts 305°
2026-05-04 21:04 45.01506 -107.51799 12512 ft 151 kts 306°
2026-05-04 21:04 45.02129 -107.53022 12508 ft 155 kts 306°
2026-05-04 21:04 45.02766 -107.54276 12508 ft 158 kts 306°
2026-05-04 21:05 45.03412 -107.55549 12504 ft 160 kts 306°
2026-05-04 21:05 45.04066 -107.56838 12508 ft 163 kts 306°
2026-05-04 21:05 45.04730 -107.58146 12501 ft 165 kts 306°
2026-05-04 21:05 45.05396 -107.59462 12507 ft 164 kts 306°
2026-05-04 21:06 45.06062 -107.60774 12508 ft 164 kts 306°
2026-05-04 21:06 45.06648 -107.62164 12499 ft 165 kts 295°
2026-05-04 21:06 45.07050 -107.63686 12510 ft 166 kts 291°
2026-05-04 21:06 45.07432 -107.65244 12494 ft 168 kts 292°
2026-05-04 21:07 45.07849 -107.66774 12501 ft 165 kts 294°
2026-05-04 21:07 45.08305 -107.68264 12508 ft 165 kts 296°
2026-05-04 21:07 45.08797 -107.69738 12499 ft 166 kts 297°
2026-05-04 21:07 45.09313 -107.71198 12502 ft 166 kts 298°
2026-05-04 21:08 45.09844 -107.72647 12505 ft 166 kts 299°
2026-05-04 21:08 45.10379 -107.74082 12509 ft 167 kts 299°
2026-05-04 21:08 45.10929 -107.75538 12499 ft 168 kts 299°
2026-05-04 21:08 45.11481 -107.76998 12501 ft 168 kts 299°
2026-05-04 21:09 45.12034 -107.78459 12498 ft 168 kts 299°
2026-05-04 21:09 45.12587 -107.79918 12500 ft 168 kts 299°
2026-05-04 21:09 45.13138 -107.81374 12497 ft 168 kts 299°
2026-05-04 21:09 45.13689 -107.82829 12501 ft 168 kts 299°
2026-05-04 21:10 45.14241 -107.84286 12501 ft 168 kts 299°
2026-05-04 21:10 45.14792 -107.85741 12499 ft 168 kts 299°
2026-05-04 21:10 45.15343 -107.87201 12509 ft 168 kts 299°
2026-05-04 21:10 45.15879 -107.88652 12504 ft 166 kts 300°
2026-05-04 21:11 45.16419 -107.90106 12494 ft 166 kts 300°
2026-05-04 21:11 45.16964 -107.91546 12510 ft 166 kts 301°
2026-05-04 21:11 45.17513 -107.92996 12469 ft 166 kts 301°
2026-05-04 21:11 45.18052 -107.94423 12513 ft 163 kts 301°
2026-05-04 21:12 45.18591 -107.95844 12487 ft 163 kts 301°
2026-05-04 21:12 45.19126 -107.97247 12512 ft 162 kts 301°
2026-05-04 21:12 45.19662 -107.98664 12473 ft 163 kts 301°
2026-05-04 21:12 45.20202 -108.00074 12493 ft 163 kts 300°
2026-05-04 21:13 45.20740 -108.01486 12502 ft 163 kts 300°
2026-05-04 21:13 45.21274 -108.02910 12501 ft 164 kts 300°
2026-05-04 21:13 45.21805 -108.04341 12512 ft 165 kts 300°
2026-05-04 21:13 45.22343 -108.05789 12495 ft 166 kts 300°
2026-05-04 21:14 45.22887 -108.07237 12513 ft 167 kts 300°
2026-05-04 21:14 45.23435 -108.08696 12489 ft 168 kts 300°
2026-05-04 21:14 45.23972 -108.10152 12493 ft 165 kts 300°
2026-05-04 21:14 45.24512 -108.11588 12509 ft 165 kts 300°
2026-05-04 21:15 45.25058 -108.13030 12502 ft 167 kts 300°
2026-05-04 21:15 45.25605 -108.14488 12501 ft 168 kts 300°
2026-05-04 21:15 45.26150 -108.15951 12497 ft 167 kts 300°
2026-05-04 21:15 45.26695 -108.17409 12500 ft 167 kts 300°
2026-05-04 21:16 45.27233 -108.18850 12501 ft 167 kts 300°
2026-05-04 21:16 45.27785 -108.20328 12493 ft 167 kts 300°
2026-05-04 21:16 45.28323 -108.21772 12492 ft 167 kts 300°
2026-05-04 21:16 45.28862 -108.23225 12492 ft 166 kts 300°
2026-05-04 21:17 45.29402 -108.24673 12489 ft 165 kts 300°
2026-05-04 21:17 45.29939 -108.26110 12491 ft 164 kts 300°
2026-05-04 21:17 45.30471 -108.27539 12493 ft 163 kts 299°
2026-05-04 21:17 45.30999 -108.28958 12492 ft 162 kts 299°
2026-05-04 21:18 45.31521 -108.30367 12495 ft 161 kts 299°
2026-05-04 21:18 45.32040 -108.31767 12498 ft 159 kts 299°
2026-05-04 21:18 45.32553 -108.33153 12502 ft 158 kts 300°
2026-05-04 21:18 45.33066 -108.34533 12501 ft 157 kts 299°
2026-05-04 21:19 45.33574 -108.35903 12499 ft 156 kts 300°
2026-05-04 21:19 45.34074 -108.37255 12493 ft 153 kts 299°
2026-05-04 21:19 45.34563 -108.38577 12501 ft 150 kts 300°
2026-05-04 21:19 45.35044 -108.39877 12504 ft 148 kts 300°
2026-05-04 21:20 45.35518 -108.41161 12489 ft 145 kts 300°
2026-05-04 21:20 45.35971 -108.42393 12488 ft 140 kts 300°
2026-05-04 21:20 45.36421 -108.43608 12497 ft 137 kts 300°
2026-05-04 21:20 45.36862 -108.44796 12501 ft 135 kts 300°
2026-05-04 21:21 45.37296 -108.45974 12492 ft 133 kts 300°
2026-05-04 21:21 45.37721 -108.47130 12490 ft 130 kts 300°
2026-05-04 21:21 45.38137 -108.48258 12490 ft 127 kts 300°
2026-05-04 21:21 45.38540 -108.49356 12486 ft 123 kts 300°
2026-05-04 21:22 45.38926 -108.50411 12487 ft 118 kts 300°
2026-05-04 21:22 45.39296 -108.51422 12486 ft 113 kts 300°
2026-05-04 21:22 45.39653 -108.52398 12441 ft 112 kts 300°
2026-05-04 21:22 45.40033 -108.53403 12323 ft 118 kts 299°
2026-05-04 21:23 45.40437 -108.54472 12183 ft 126 kts 298°
2026-05-04 21:23 45.40855 -108.55600 12051 ft 133 kts 298°
2026-05-04 21:23 45.41300 -108.56807 11868 ft 142 kts 298°
2026-05-04 21:23 45.41769 -108.58080 11703 ft 148 kts 298°
2026-05-04 21:24 45.42204 -108.59432 11566 ft 152 kts 292°
2026-05-04 21:24 45.42567 -108.60866 11442 ft 155 kts 291°
2026-05-04 21:24 45.42924 -108.62326 11320 ft 158 kts 291°
2026-05-04 21:24 45.43285 -108.63812 11213 ft 160 kts 291°
2026-05-04 21:25 45.43647 -108.65322 11098 ft 162 kts 291°
2026-05-04 21:25 45.44012 -108.66848 10995 ft 163 kts 291°
2026-05-04 21:25 45.44381 -108.68385 10898 ft 165 kts 291°
2026-05-04 21:25 45.44753 -108.69932 10792 ft 166 kts 291°
2026-05-04 21:26 45.45129 -108.71495 10728 ft 167 kts 291°
2026-05-04 21:26 45.45506 -108.73061 10659 ft 167 kts 291°
2026-05-04 21:26 45.45883 -108.74624 10593 ft 167 kts 291°
2026-05-04 21:26 45.46263 -108.76194 10521 ft 168 kts 291°
2026-05-04 21:27 45.46644 -108.77768 10456 ft 168 kts 291°
2026-05-04 21:27 45.47021 -108.79314 10410 ft 166 kts 291°
2026-05-04 21:27 45.47395 -108.80852 10415 ft 162 kts 291°
2026-05-04 21:27 45.47761 -108.82360 10428 ft 160 kts 291°
2026-05-04 21:28 45.48120 -108.83850 10422 ft 158 kts 291°
2026-05-04 21:28 45.48476 -108.85330 10425 ft 157 kts 291°
2026-05-04 21:28 45.48828 -108.86801 10427 ft 156 kts 291°
2026-05-04 21:28 45.49177 -108.88263 10426 ft 156 kts 291°
2026-05-04 21:29 45.49525 -108.89722 10427 ft 155 kts 291°
2026-05-04 21:29 45.49872 -108.91183 10427 ft 156 kts 291°
2026-05-04 21:29 45.50221 -108.92655 10426 ft 157 kts 291°
2026-05-04 21:29 45.50568 -108.94130 10425 ft 157 kts 291°
2026-05-04 21:30 45.50916 -108.95608 10426 ft 157 kts 291°
2026-05-04 21:30 45.51270 -108.97083 10425 ft 157 kts 291°
2026-05-04 21:30 45.51626 -108.98557 10430 ft 157 kts 291°
2026-05-04 21:30 45.51982 -109.00035 10433 ft 158 kts 291°
2026-05-04 21:31 45.52712 -109.03048 10418 ft 166 kts 291°
2026-05-04 21:31 45.53116 -109.04607 10424 ft 169 kts 291°
2026-05-04 21:31 45.53528 -109.06180 10427 ft 170 kts 291°
2026-05-04 21:32 45.53945 -109.07766 10427 ft 172 kts 291°
2026-05-04 21:32 45.54364 -109.09366 10421 ft 173 kts 291°
2026-05-04 21:32 45.54787 -109.10982 10420 ft 175 kts 291°
2026-05-04 21:32 45.55213 -109.12611 10421 ft 176 kts 291°
2026-05-04 21:33 45.55641 -109.14248 10427 ft 177 kts 291°
2026-05-04 21:33 45.56076 -109.15901 10423 ft 178 kts 291°
2026-05-04 21:33 45.56514 -109.17561 10427 ft 179 kts 291°
2026-05-04 21:33 45.56948 -109.19202 10426 ft 179 kts 291°
2026-05-04 21:34 45.57396 -109.20889 10420 ft 180 kts 291°
2026-05-04 21:34 45.57835 -109.22540 10429 ft 180 kts 291°
2026-05-04 21:34 45.58282 -109.24216 10428 ft 182 kts 291°
2026-05-04 21:34 45.58736 -109.25905 10428 ft 183 kts 291°
2026-05-04 21:35 45.59193 -109.27601 10420 ft 184 kts 291°
2026-05-04 21:35 45.59653 -109.29309 10422 ft 184 kts 291°
2026-05-04 21:35 45.60115 -109.31022 10427 ft 185 kts 291°
2026-05-04 21:35 45.60579 -109.32736 10426 ft 185 kts 291°
2026-05-04 21:36 45.61045 -109.34459 10426 ft 187 kts 291°
2026-05-04 21:36 45.61515 -109.36194 10422 ft 187 kts 291°
2026-05-04 21:36 45.61985 -109.37927 10431 ft 187 kts 291°
2026-05-04 21:36 45.62457 -109.39673 10433 ft 189 kts 291°
2026-05-04 21:37 45.62925 -109.41430 10428 ft 190 kts 290°
2026-05-04 21:37 45.63343 -109.43226 10433 ft 191 kts 289°
2026-05-04 21:37 45.63749 -109.45032 10434 ft 191 kts 289°
2026-05-04 21:37 45.64148 -109.46814 10436 ft 190 kts 289°
2026-05-04 21:38 45.64550 -109.48610 10431 ft 190 kts 289°
2026-05-04 21:38 45.64955 -109.50408 10434 ft 190 kts 289°
2026-05-04 21:38 45.65362 -109.52213 10433 ft 191 kts 289°
2026-05-04 21:38 45.65769 -109.54026 10426 ft 192 kts 289°
2026-05-04 21:39 45.66174 -109.55839 10431 ft 192 kts 289°
2026-05-04 21:39 45.66577 -109.57659 10435 ft 192 kts 289°
2026-05-04 21:39 45.66980 -109.59477 10436 ft 192 kts 289°
2026-05-04 21:39 45.67382 -109.61290 10433 ft 191 kts 289°
2026-05-04 21:40 45.67793 -109.63101 10441 ft 192 kts 289°
2026-05-04 21:40 45.68224 -109.64910 10446 ft 192 kts 289°
2026-05-04 21:40 45.68657 -109.66709 10443 ft 191 kts 289°
2026-05-04 21:40 45.69084 -109.68501 10442 ft 191 kts 289°
2026-05-04 21:41 45.69511 -109.70298 10447 ft 190 kts 289°
2026-05-04 21:41 45.69936 -109.72080 10447 ft 188 kts 289°
2026-05-04 21:41 45.70358 -109.73856 10441 ft 188 kts 289°
2026-05-04 21:41 45.70782 -109.75627 10447 ft 188 kts 289°
2026-05-04 21:42 45.71207 -109.77394 10441 ft 187 kts 289°
2026-05-04 21:42 45.71625 -109.79123 10441 ft 186 kts 289°
2026-05-04 21:42 45.72051 -109.80882 10446 ft 188 kts 289°
2026-05-04 21:42 45.72479 -109.82645 10456 ft 187 kts 289°
2026-05-04 21:43 45.72906 -109.84405 10451 ft 187 kts 289°
2026-05-04 21:43 45.73332 -109.86158 10454 ft 186 kts 289°
2026-05-04 21:43 45.73754 -109.87899 10454 ft 184 kts 289°
2026-05-04 21:43 45.74173 -109.89634 10449 ft 184 kts 289°
2026-05-04 21:44 45.74591 -109.91361 10451 ft 183 kts 289°
2026-05-04 21:44 45.75009 -109.93078 10454 ft 182 kts 289°
2026-05-04 21:44 45.75426 -109.94787 10453 ft 181 kts 289°
2026-05-04 21:44 45.75840 -109.96484 10454 ft 180 kts 289°
2026-05-04 21:45 45.76252 -109.98182 10453 ft 181 kts 289°
2026-05-04 21:45 45.76664 -109.99880 10444 ft 180 kts 289°
2026-05-04 21:45 45.77073 -110.01563 10452 ft 178 kts 289°
2026-05-04 21:45 45.77480 -110.03231 10454 ft 177 kts 289°
2026-05-04 21:46 45.77886 -110.04905 10457 ft 176 kts 289°
2026-05-04 21:46 45.78281 -110.06534 10462 ft 171 kts 289°
2026-05-04 21:46 45.78667 -110.08151 10455 ft 172 kts 289°
2026-05-04 21:46 45.79052 -110.09769 10455 ft 169 kts 289°
2026-05-04 21:47 45.79426 -110.11331 10457 ft 164 kts 289°
2026-05-04 21:47 45.79796 -110.12869 10467 ft 162 kts 289°
2026-05-04 21:47 45.80159 -110.14361 10461 ft 159 kts 289°
2026-05-04 21:47 45.80521 -110.15844 10458 ft 156 kts 289°
2026-05-04 21:48 45.80880 -110.17314 10460 ft 156 kts 289°
2026-05-04 21:48 45.81233 -110.18772 10463 ft 153 kts 289°
2026-05-04 21:48 45.81578 -110.20195 10459 ft 149 kts 289°
2026-05-04 21:48 45.81917 -110.21595 10461 ft 147 kts 289°
2026-05-04 21:49 45.82249 -110.22967 10466 ft 145 kts 289°
2026-05-04 21:49 45.82578 -110.24323 10461 ft 143 kts 289°
2026-05-04 21:49 45.82901 -110.25654 10460 ft 140 kts 289°
2026-05-04 21:49 45.83215 -110.26949 10464 ft 135 kts 289°
2026-05-04 21:50 45.83521 -110.28204 10459 ft 132 kts 289°
2026-05-04 21:50 45.83822 -110.29436 10464 ft 131 kts 289°
2026-05-04 21:50 45.84122 -110.30663 10464 ft 130 kts 289°
2026-05-04 21:50 45.84417 -110.31868 10457 ft 126 kts 289°
2026-05-04 21:51 45.84707 -110.33052 10468 ft 125 kts 289°
2026-05-04 21:51 45.84994 -110.34232 10457 ft 126 kts 289°
2026-05-04 21:51 45.85283 -110.35417 10467 ft 125 kts 289°
2026-05-04 21:51 45.85571 -110.36605 10470 ft 127 kts 289°
2026-05-04 21:52 45.85764 -110.37402 10472 ft 128 kts 289°
2026-05-04 21:52 45.86154 -110.39010 10480 ft 128 kts 289°
2026-05-04 21:52 45.86452 -110.40241 10428 ft 137 kts 289°
2026-05-04 21:52 45.87038 -110.41342 10352 ft 144 kts 319°
2026-05-04 21:53 45.87586 -110.41941 10327 ft 148 kts 321°
2026-05-04 21:53 45.88432 -110.42815 10300 ft 151 kts 321°
2026-05-04 21:53 45.89292 -110.43690 10293 ft 153 kts 321°
2026-05-04 21:53 45.90165 -110.44584 10294 ft 155 kts 321°
2026-05-04 21:54 45.91046 -110.45497 10298 ft 157 kts 321°
2026-05-04 21:54 45.91920 -110.46404 10301 ft 157 kts 321°
2026-05-04 21:54 45.92811 -110.47320 10307 ft 157 kts 321°
2026-05-04 21:54 45.93704 -110.48235 10321 ft 158 kts 321°
2026-05-04 21:55 45.94593 -110.49177 10330 ft 160 kts 321°
2026-05-04 21:55 45.95480 -110.50137 10343 ft 159 kts 321°
2026-05-04 21:55 45.96363 -110.51087 10374 ft 157 kts 321°
2026-05-04 21:55 45.97243 -110.52031 10401 ft 159 kts 321°
2026-05-04 21:56 45.98128 -110.52988 10438 ft 160 kts 321°
2026-05-04 21:56 45.99022 -110.53958 10470 ft 161 kts 321°
2026-05-04 21:56 45.99916 -110.54920 10498 ft 160 kts 321°
2026-05-04 21:56 46.00807 -110.55868 10530 ft 159 kts 321°
2026-05-04 21:57 46.01711 -110.56832 10514 ft 164 kts 321°
2026-05-04 21:57 46.02633 -110.57819 10536 ft 166 kts 321°
2026-05-04 21:57 46.03564 -110.58824 10527 ft 169 kts 321°
2026-05-04 21:57 46.04507 -110.59838 10525 ft 169 kts 321°
2026-05-04 21:58 46.05462 -110.60867 10527 ft 173 kts 321°
2026-05-04 21:58 46.06422 -110.61906 10526 ft 176 kts 321°
2026-05-04 21:58 46.07398 -110.62961 10525 ft 176 kts 321°
2026-05-04 21:58 46.08380 -110.64021 10526 ft 176 kts 321°
2026-05-04 21:59 46.09360 -110.65079 10528 ft 176 kts 321°
2026-05-04 21:59 46.10347 -110.66145 10524 ft 178 kts 321°
2026-05-04 21:59 46.11329 -110.67215 10522 ft 176 kts 321°
2026-05-04 21:59 46.12305 -110.68271 10530 ft 175 kts 321°
2026-05-04 22:00 46.13286 -110.69328 10533 ft 176 kts 321°
2026-05-04 22:00 46.14268 -110.70395 10530 ft 177 kts 321°
2026-05-04 22:00 46.15257 -110.71464 10540 ft 178 kts 321°
2026-05-04 22:00 46.16249 -110.72537 10541 ft 178 kts 321°
2026-05-04 22:01 46.17242 -110.73610 10538 ft 179 kts 321°
2026-05-04 22:01 46.18245 -110.74693 10531 ft 181 kts 321°
2026-05-04 22:01 46.19248 -110.75779 10537 ft 180 kts 321°
2026-05-04 22:01 46.20255 -110.76855 10531 ft 179 kts 321°
2026-05-04 22:02 46.21234 -110.77901 10536 ft 177 kts 321°
2026-05-04 22:02 46.22213 -110.78990 10541 ft 180 kts 313°
2026-05-04 22:02 46.22851 -110.80520 10540 ft 177 kts 294°
2026-05-04 22:02 46.23342 -110.82152 10534 ft 178 kts 294°
2026-05-04 22:03 46.23842 -110.83792 10544 ft 179 kts 294°
2026-05-04 22:03 46.24340 -110.85420 10545 ft 175 kts 294°
2026-05-04 22:03 46.24829 -110.87025 10543 ft 175 kts 294°
2026-05-04 22:03 46.25326 -110.88654 10542 ft 178 kts 294°
2026-05-04 22:04 46.25830 -110.90305 10544 ft 181 kts 294°
2026-05-04 22:04 46.26331 -110.91960 10538 ft 179 kts 294°
2026-05-04 22:04 46.26830 -110.93616 10539 ft 183 kts 294°
2026-05-04 22:04 46.27339 -110.95311 10543 ft 184 kts 294°
2026-05-04 22:05 46.27827 -110.97038 10532 ft 187 kts 295°
2026-05-04 22:05 46.28340 -110.98777 10546 ft 187 kts 296°
2026-05-04 22:05 46.28857 -111.00497 10542 ft 188 kts 297°
2026-05-04 22:05 46.29398 -111.02234 10541 ft 190 kts 297°
2026-05-04 22:06 46.29928 -111.03971 10544 ft 190 kts 297°
2026-05-04 22:06 46.30456 -111.05713 10535 ft 189 kts 297°
2026-05-04 22:06 46.30973 -111.07426 10548 ft 189 kts 297°
2026-05-04 22:06 46.31515 -111.09188 10548 ft 194 kts 297°
2026-05-04 22:07 46.32056 -111.10973 10539 ft 193 kts 296°
2026-05-04 22:07 46.32592 -111.12764 10531 ft 196 kts 296°
2026-05-04 22:07 46.33147 -111.14586 10533 ft 200 kts 296°
2026-05-04 22:07 46.33703 -111.16426 10534 ft 199 kts 296°
2026-05-04 22:08 46.34241 -111.18255 10537 ft 198 kts 296°
2026-05-04 22:08 46.34774 -111.20069 10537 ft 195 kts 296°
2026-05-04 22:08 46.35320 -111.21891 10536 ft 199 kts 296°
2026-05-04 22:08 46.35861 -111.23710 10532 ft 194 kts 296°
2026-05-04 22:09 46.36392 -111.25508 10528 ft 193 kts 296°
2026-05-04 22:09 46.36930 -111.27298 10543 ft 194 kts 296°
2026-05-04 22:09 46.37466 -111.29089 10529 ft 196 kts 296°
2026-05-04 22:09 46.38011 -111.30901 10537 ft 194 kts 296°
2026-05-04 22:10 46.38540 -111.32696 10539 ft 195 kts 296°
2026-05-04 22:10 46.39081 -111.34499 10533 ft 195 kts 296°
2026-05-04 22:10 46.39626 -111.36292 10542 ft 195 kts 296°
2026-05-04 22:10 46.40167 -111.38100 10537 ft 194 kts 295°
2026-05-04 22:11 46.40690 -111.39886 10539 ft 192 kts 295°
2026-05-04 22:11 46.41221 -111.41680 10541 ft 195 kts 295°
2026-05-04 22:11 46.41753 -111.43482 10536 ft 195 kts 295°
2026-05-04 22:11 46.42278 -111.45277 10538 ft 192 kts 295°
2026-05-04 22:12 46.42800 -111.47058 10537 ft 192 kts 295°
2026-05-04 22:12 46.43328 -111.48847 10547 ft 193 kts 295°
2026-05-04 22:12 46.43861 -111.50646 10544 ft 195 kts 295°
2026-05-04 22:12 46.44391 -111.52446 10544 ft 193 kts 295°
2026-05-04 22:13 46.44918 -111.54239 10547 ft 195 kts 295°
2026-05-04 22:13 46.45432 -111.56029 10545 ft 194 kts 293°
2026-05-04 22:13 46.45909 -111.57852 10547 ft 194 kts 292°
2026-05-04 22:13 46.46382 -111.59694 10545 ft 195 kts 292°
2026-05-04 22:14 46.46843 -111.61527 10548 ft 193 kts 292°
2026-05-04 22:14 46.47307 -111.63358 10548 ft 194 kts 292°
2026-05-04 22:14 46.47780 -111.65197 10546 ft 194 kts 292°
2026-05-04 22:14 46.48247 -111.67024 10552 ft 193 kts 292°
2026-05-04 22:15 46.48718 -111.68853 10552 ft 193 kts 292°
2026-05-04 22:15 46.49185 -111.70671 10551 ft 192 kts 293°
2026-05-04 22:15 46.49655 -111.72486 10550 ft 193 kts 293°
2026-05-04 22:15 46.50133 -111.74319 10548 ft 195 kts 292°
2026-05-04 22:16 46.50609 -111.76158 10551 ft 194 kts 292°
2026-05-04 22:16 46.51081 -111.77998 10551 ft 194 kts 292°
2026-05-04 22:16 46.51556 -111.79839 10544 ft 196 kts 292°
2026-05-04 22:16 46.52036 -111.81694 10554 ft 197 kts 292°
2026-05-04 22:17 46.52518 -111.83564 10547 ft 198 kts 292°
2026-05-04 22:17 46.52994 -111.85439 10540 ft 198 kts 292°
2026-05-04 22:17 46.53466 -111.87313 10544 ft 196 kts 293°
2026-05-04 22:17 46.53940 -111.89173 10528 ft 197 kts 293°
2026-05-04 22:18 46.54434 -111.91025 10534 ft 200 kts 292°
2026-05-04 22:18 46.54917 -111.92888 10544 ft 195 kts 292°
2026-05-04 22:18 46.55388 -111.94739 10546 ft 197 kts 292°
2026-05-04 22:18 46.55859 -111.96591 10543 ft 195 kts 292°
2026-05-04 22:19 46.56328 -111.98442 10546 ft 194 kts 292°
2026-05-04 22:19 46.56807 -112.00305 10544 ft 199 kts 292°
2026-05-04 22:19 46.57289 -112.02186 10544 ft 197 kts 292°
2026-05-04 22:19 46.57759 -112.04052 10546 ft 196 kts 292°
2026-05-04 22:20 46.58243 -112.05933 10542 ft 199 kts 291°
2026-05-04 22:20 46.58725 -112.07820 10543 ft 200 kts 291°
2026-05-04 22:20 46.59209 -112.09727 10545 ft 202 kts 291°
2026-05-04 22:20 46.59692 -112.11644 10545 ft 202 kts 291°
2026-05-04 22:21 46.60159 -112.13534 10545 ft 197 kts 292°
2026-05-04 22:21 46.60626 -112.15400 10544 ft 198 kts 292°
2026-05-04 22:21 46.61104 -112.17265 10545 ft 200 kts 292°
2026-05-04 22:21 46.61593 -112.19179 10547 ft 198 kts 292°
2026-05-04 22:22 46.62051 -112.21012 10543 ft 194 kts 292°
2026-05-04 22:22 46.62513 -112.22851 10543 ft 193 kts 292°
2026-05-04 22:22 46.62987 -112.24692 10548 ft 197 kts 292°
2026-05-04 22:22 46.63467 -112.26558 10549 ft 197 kts 292°
2026-05-04 22:23 46.63952 -112.28447 10550 ft 200 kts 292°
2026-05-04 22:23 46.64419 -112.30323 10544 ft 196 kts 292°
2026-05-04 22:23 46.64882 -112.32186 10548 ft 198 kts 292°
2026-05-04 22:23 46.65364 -112.34084 10547 ft 200 kts 291°
2026-05-04 22:24 46.65842 -112.35988 10545 ft 199 kts 291°
2026-05-04 22:24 46.66305 -112.37863 10547 ft 198 kts 292°
2026-05-04 22:24 46.66785 -112.39756 10548 ft 198 kts 291°
2026-05-04 22:24 46.67247 -112.41623 10544 ft 194 kts 292°
2026-05-04 22:25 46.67714 -112.43483 10547 ft 197 kts 292°
2026-05-04 22:25 46.68186 -112.45352 10532 ft 190 kts 291°
2026-05-04 22:25 46.68629 -112.47141 10537 ft 188 kts 291°
2026-05-04 22:25 46.69066 -112.48909 10533 ft 184 kts 292°
2026-05-04 22:26 46.69498 -112.50648 10543 ft 181 kts 292°
2026-05-04 22:26 46.69936 -112.52390 10535 ft 189 kts 292°
2026-05-04 22:26 46.70392 -112.54181 10533 ft 193 kts 292°
2026-05-04 22:26 46.70850 -112.56009 10537 ft 190 kts 291°
2026-05-04 22:27 46.71291 -112.57802 10534 ft 190 kts 292°
2026-05-04 22:27 46.71741 -112.59613 10537 ft 193 kts 291°
2026-05-04 22:27 46.72211 -112.61473 10536 ft 197 kts 291°
2026-05-04 22:27 46.72682 -112.63354 10539 ft 197 kts 291°
2026-05-04 22:28 46.73139 -112.65218 10535 ft 192 kts 291°
2026-05-04 22:28 46.73588 -112.67055 10520 ft 189 kts 291°
2026-05-04 22:28 46.74024 -112.68848 10522 ft 187 kts 292°
2026-05-04 22:28 46.74480 -112.70668 10522 ft 193 kts 291°
2026-05-04 22:29 46.74935 -112.72498 10525 ft 188 kts 291°
2026-05-04 22:29 46.75366 -112.74272 10526 ft 185 kts 292°
2026-05-04 22:29 46.75818 -112.76076 10523 ft 193 kts 291°
2026-05-04 22:29 46.76265 -112.77886 10524 ft 186 kts 291°
2026-05-04 22:30 46.76699 -112.79663 10525 ft 190 kts 291°
2026-05-04 22:30 46.77157 -112.81515 10521 ft 196 kts 292°
2026-05-04 22:30 46.77605 -112.83361 10519 ft 191 kts 292°
2026-05-04 22:30 46.78046 -112.85176 10527 ft 193 kts 292°
2026-05-04 22:31 46.78506 -112.87022 10521 ft 193 kts 292°
2026-05-04 22:31 46.78968 -112.88886 10510 ft 197 kts 292°
2026-05-04 22:31 46.79437 -112.90781 10512 ft 199 kts 292°
2026-05-04 22:31 46.79904 -112.92679 10515 ft 196 kts 292°
2026-05-04 22:32 46.80350 -112.94539 10511 ft 193 kts 292°
2026-05-04 22:32 46.80799 -112.96387 10508 ft 195 kts 292°
2026-05-04 22:32 46.81264 -112.98244 10509 ft 197 kts 292°
2026-05-04 22:32 46.81727 -113.00127 10502 ft 195 kts 292°
2026-05-04 22:33 46.82182 -113.01950 10503 ft 189 kts 292°
2026-05-04 22:33 46.82625 -113.03750 10505 ft 189 kts 291°
2026-05-04 22:33 46.83065 -113.05563 10505 ft 192 kts 291°
2026-05-04 22:33 46.83507 -113.07390 10508 ft 191 kts 291°
2026-05-04 22:34 46.83958 -113.09246 10510 ft 195 kts 291°
2026-05-04 22:34 46.84402 -113.11092 10497 ft 191 kts 291°
2026-05-04 22:34 46.84842 -113.12916 10493 ft 191 kts 291°
2026-05-04 22:34 46.85299 -113.14775 10500 ft 196 kts 291°
2026-05-04 22:35 46.85750 -113.16628 10497 ft 194 kts 290°
2026-05-04 22:35 46.86201 -113.18491 10498 ft 194 kts 290°
2026-05-04 22:35 46.86652 -113.20368 10494 ft 197 kts 290°
2026-05-04 22:35 46.87094 -113.22222 10497 ft 192 kts 290°
2026-05-04 22:36 46.87532 -113.24062 10488 ft 193 kts 291°
2026-05-04 22:36 46.87983 -113.25925 10499 ft 196 kts 291°
2026-05-04 22:36 46.88432 -113.27782 10491 ft 192 kts 291°
2026-05-04 22:36 46.88876 -113.29638 10494 ft 193 kts 291°
2026-05-04 22:37 46.89309 -113.31484 10490 ft 191 kts 291°
2026-05-04 22:37 46.89747 -113.33311 10479 ft 190 kts 292°
2026-05-04 22:37 46.90194 -113.35150 10477 ft 196 kts 292°
2026-05-04 22:37 46.90660 -113.37042 10477 ft 199 kts 291°
2026-05-04 22:38 46.91117 -113.38936 10473 ft 195 kts 291°
2026-05-04 22:38 46.91562 -113.40804 10471 ft 195 kts 292°
2026-05-04 22:38 46.92009 -113.42650 10475 ft 198 kts 291°
2026-05-04 22:38 46.92476 -113.44563 10474 ft 200 kts 291°
2026-05-04 22:39 46.92938 -113.46485 10475 ft 200 kts 291°
2026-05-04 22:39 46.93385 -113.48384 10477 ft 195 kts 291°
2026-05-04 22:39 46.93830 -113.50270 10472 ft 196 kts 291°
2026-05-04 22:39 46.94265 -113.52127 10477 ft 192 kts 291°
2026-05-04 22:40 46.94714 -113.53991 10480 ft 197 kts 291°
2026-05-04 22:40 46.95173 -113.55893 10454 ft 196 kts 291°
2026-05-04 22:40 46.95608 -113.57774 10453 ft 195 kts 291°
2026-05-04 22:40 46.96049 -113.59649 10455 ft 195 kts 292°
2026-05-04 22:41 46.96510 -113.61535 10458 ft 198 kts 292°
2026-05-04 22:41 46.96958 -113.63416 10456 ft 194 kts 291°
2026-05-04 22:41 46.97411 -113.65307 10455 ft 199 kts 291°
2026-05-04 22:41 46.97872 -113.67228 10459 ft 199 kts 291°
2026-05-04 22:42 46.98166 -113.68491 10453 ft 198 kts 291°
2026-05-04 22:42 46.98611 -113.70393 10451 ft 199 kts 291°
2026-05-04 22:42 46.99073 -113.72309 10451 ft 200 kts 291°
2026-05-04 22:42 46.99554 -113.74227 10448 ft 202 kts 292°
2026-05-04 22:43 47.00207 -113.76786 10448 ft 202 kts 292°
2026-05-04 22:43 47.00696 -113.78740 10432 ft 207 kts 292°
2026-05-04 22:43 47.01033 -113.80080 10441 ft 208 kts 292°
2026-05-04 22:43 47.01536 -113.82071 10438 ft 209 kts 292°
2026-05-04 22:44 47.02050 -113.84073 10433 ft 210 kts 292°
2026-05-04 22:44 47.02550 -113.86051 10437 ft 209 kts 292°
2026-05-04 22:44 47.03045 -113.88050 10436 ft 209 kts 292°
2026-05-04 22:44 47.03549 -113.90051 10442 ft 210 kts 292°
2026-05-04 22:45 47.04060 -113.92062 10429 ft 210 kts 292°
2026-05-04 22:45 47.05081 -113.96086 10432 ft 211 kts 292°
2026-05-04 22:45 47.05579 -113.98105 10430 ft 211 kts 292°
2026-05-04 22:46 47.06087 -114.00124 10437 ft 211 kts 292°
2026-05-04 22:46 47.06593 -114.02150 10427 ft 211 kts 292°
2026-05-04 22:46 47.07089 -114.04169 10430 ft 211 kts 292°
2026-05-04 22:46 47.07599 -114.06186 10429 ft 211 kts 292°
2026-05-04 22:47 47.08100 -114.08208 10430 ft 210 kts 292°
2026-05-04 22:47 47.08594 -114.10219 10432 ft 210 kts 292°
2026-05-04 22:47 47.09101 -114.12228 10430 ft 210 kts 292°
2026-05-04 22:47 47.09596 -114.14232 10427 ft 205 kts 292°
2026-05-04 22:48 47.10073 -114.16178 10424 ft 201 kts 292°
2026-05-04 22:48 47.10549 -114.18101 10425 ft 200 kts 292°
2026-05-04 22:48 47.11027 -114.20017 10417 ft 200 kts 292°
2026-05-04 22:48 47.11510 -114.21935 10414 ft 200 kts 292°
2026-05-04 22:49 47.11990 -114.23861 10418 ft 201 kts 292°
2026-05-04 22:49 47.12461 -114.25768 10399 ft 201 kts 292°
2026-05-04 22:49 47.12946 -114.27703 10398 ft 202 kts 292°
2026-05-04 22:49 47.13436 -114.29658 10392 ft 205 kts 291°
2026-05-04 22:50 47.13924 -114.31629 10403 ft 205 kts 291°
2026-05-04 22:50 47.14399 -114.33593 10393 ft 201 kts 291°
2026-05-04 22:50 47.14866 -114.35523 10397 ft 201 kts 291°
2026-05-04 22:50 47.15330 -114.37443 10400 ft 199 kts 291°
2026-05-04 22:51 47.15803 -114.39366 10400 ft 202 kts 292°
2026-05-04 22:51 47.16287 -114.41303 10393 ft 201 kts 291°
2026-05-04 22:51 47.16756 -114.43226 10408 ft 200 kts 291°
2026-05-04 22:51 47.17231 -114.45164 10398 ft 201 kts 291°
2026-05-04 22:52 47.17705 -114.47097 10395 ft 201 kts 291°
2026-05-04 22:52 47.18178 -114.49031 10393 ft 202 kts 291°
2026-05-04 22:52 47.18665 -114.50989 10388 ft 205 kts 291°
2026-05-04 22:52 47.19148 -114.52964 10386 ft 204 kts 291°
2026-05-04 22:53 47.19619 -114.54924 10383 ft 204 kts 291°
2026-05-04 22:53 47.20094 -114.56868 10393 ft 204 kts 291°
2026-05-04 22:53 47.20576 -114.58839 10383 ft 205 kts 291°
2026-05-04 22:53 47.21061 -114.60818 10386 ft 206 kts 291°
2026-05-04 22:54 47.21543 -114.62799 10392 ft 205 kts 291°
2026-05-04 22:54 47.22009 -114.64754 10385 ft 202 kts 291°
2026-05-04 22:54 47.22477 -114.66701 10394 ft 203 kts 291°
2026-05-04 22:54 47.22958 -114.68668 10396 ft 205 kts 291°
2026-05-04 22:55 47.23441 -114.70646 10386 ft 205 kts 291°
2026-05-04 22:55 47.23906 -114.72610 10363 ft 202 kts 291°
2026-05-04 22:55 47.24370 -114.74504 10374 ft 194 kts 291°
2026-05-04 22:55 47.24834 -114.76375 10378 ft 197 kts 291°
2026-05-04 22:56 47.25296 -114.78273 10377 ft 197 kts 291°
2026-05-04 22:56 47.25760 -114.80182 10380 ft 201 kts 291°
2026-05-04 22:56 47.26223 -114.82116 10375 ft 198 kts 290°
2026-05-04 22:56 47.26678 -114.84021 10371 ft 198 kts 291°
2026-05-04 22:57 47.27148 -114.85957 10384 ft 201 kts 290°
2026-05-04 22:57 47.27611 -114.87900 10377 ft 200 kts 290°
2026-05-04 22:57 47.28065 -114.89819 10378 ft 199 kts 291°
2026-05-04 22:57 47.28537 -114.91753 10375 ft 201 kts 290°
2026-05-04 22:58 47.28995 -114.93668 10376 ft 196 kts 290°
2026-05-04 22:58 47.29442 -114.95555 10360 ft 197 kts 290°
2026-05-04 22:58 47.29896 -114.97455 10356 ft 200 kts 290°
2026-05-04 22:58 47.30347 -114.99359 10359 ft 197 kts 290°
2026-05-04 22:59 47.30798 -115.01255 10364 ft 194 kts 291°
2026-05-04 22:59 47.31243 -115.03123 10354 ft 192 kts 291°
2026-05-04 22:59 47.31688 -115.04978 10357 ft 192 kts 291°
2026-05-04 22:59 47.32146 -115.06856 10364 ft 197 kts 291°
2026-05-04 23:00 47.32608 -115.08765 10355 ft 197 kts 290°
2026-05-04 23:00 47.33057 -115.10655 10363 ft 193 kts 290°
2026-05-04 23:00 47.33498 -115.12531 10363 ft 193 kts 290°
2026-05-04 23:00 47.33945 -115.14419 10362 ft 199 kts 290°
2026-05-04 23:01 47.34408 -115.16352 10357 ft 200 kts 290°
2026-05-04 23:01 47.34860 -115.18257 10353 ft 198 kts 290°
2026-05-04 23:01 47.35308 -115.20169 10338 ft 197 kts 290°
2026-05-04 23:01 47.35752 -115.22080 10344 ft 196 kts 290°
2026-05-04 23:02 47.36189 -115.23984 10343 ft 196 kts 291°
2026-05-04 23:02 47.36646 -115.25901 10339 ft 200 kts 291°
2026-05-04 23:02 47.37106 -115.27834 10332 ft 197 kts 291°
2026-05-04 23:02 47.37553 -115.29735 10352 ft 196 kts 291°
2026-05-04 23:03 47.38014 -115.31644 10328 ft 197 kts 291°
2026-05-04 23:03 47.38460 -115.33539 10332 ft 195 kts 291°
2026-05-04 23:03 47.38903 -115.35430 10343 ft 197 kts 291°
2026-05-04 23:03 47.39364 -115.37352 10331 ft 199 kts 291°
2026-05-04 23:04 47.39817 -115.39275 10340 ft 198 kts 291°
2026-05-04 23:04 47.40260 -115.41188 10332 ft 198 kts 291°
2026-05-04 23:04 47.40713 -115.43116 10305 ft 199 kts 291°
2026-05-04 23:04 47.41171 -115.45055 10311 ft 201 kts 291°
2026-05-04 23:05 47.41633 -115.47010 10304 ft 202 kts 291°
2026-05-04 23:05 47.42084 -115.48942 10311 ft 201 kts 290°
2026-05-04 23:05 47.42528 -115.50874 10304 ft 199 kts 291°
2026-05-04 23:05 47.42973 -115.52806 10297 ft 198 kts 291°
2026-05-04 23:06 47.43423 -115.54732 10300 ft 199 kts 291°
2026-05-04 23:06 47.43877 -115.56662 10300 ft 199 kts 291°
2026-05-04 23:06 47.44321 -115.58588 10307 ft 196 kts 291°
2026-05-04 23:06 47.44755 -115.60481 10288 ft 193 kts 291°
2026-05-04 23:07 47.45193 -115.62360 10313 ft 194 kts 291°
2026-05-04 23:07 47.45640 -115.64252 10295 ft 195 kts 291°
2026-05-04 23:07 47.46098 -115.66135 10311 ft 197 kts 293°
2026-05-04 23:07 47.46616 -115.68022 10312 ft 198 kts 294°
2026-05-04 23:08 47.47144 -115.69903 10304 ft 201 kts 294°
2026-05-04 23:08 47.47700 -115.71846 10305 ft 207 kts 294°
2026-05-04 23:08 47.48253 -115.73791 10308 ft 209 kts 294°
2026-05-04 23:08 47.48815 -115.75808 10300 ft 210 kts 293°
2026-05-04 23:09 47.49355 -115.77793 10302 ft 207 kts 294°
2026-05-04 23:09 47.49900 -115.79769 10303 ft 209 kts 294°
2026-05-04 23:09 47.50452 -115.81755 10305 ft 208 kts 294°
2026-05-04 23:09 47.50991 -115.83740 10304 ft 207 kts 294°
2026-05-04 23:10 47.51524 -115.85716 10308 ft 207 kts 294°
2026-05-04 23:10 47.52067 -115.87691 10303 ft 208 kts 294°
2026-05-04 23:10 47.52622 -115.89676 10308 ft 209 kts 294°
2026-05-04 23:10 47.53165 -115.91641 10213 ft 208 kts 294°
2026-05-04 23:11 47.53704 -115.93577 10258 ft 201 kts 293°
2026-05-04 23:11 47.54225 -115.95475 10307 ft 198 kts 292°
2026-05-04 23:11 47.54737 -115.97366 10322 ft 198 kts 292°
2026-05-04 23:11 47.55250 -115.99268 10313 ft 199 kts 292°
2026-05-04 23:12 47.55767 -116.01180 10320 ft 200 kts 292°
2026-05-04 23:12 47.56285 -116.03095 10314 ft 200 kts 292°
2026-05-04 23:12 47.56803 -116.05007 10325 ft 200 kts 292°
2026-05-04 23:12 47.57321 -116.06922 10329 ft 201 kts 292°
2026-05-04 23:13 47.57842 -116.08836 10318 ft 200 kts 292°
2026-05-04 23:13 47.58359 -116.10741 10322 ft 199 kts 292°
2026-05-04 23:13 47.58877 -116.12651 10324 ft 200 kts 292°
2026-05-04 23:13 47.59387 -116.14536 10324 ft 199 kts 292°
2026-05-04 23:14 47.59900 -116.16439 10327 ft 199 kts 292°
2026-05-04 23:14 47.60415 -116.18349 10337 ft 200 kts 292°
2026-05-04 23:14 47.60932 -116.20260 10337 ft 200 kts 292°
2026-05-04 23:14 47.61448 -116.22172 10338 ft 200 kts 292°
2026-05-04 23:15 47.61966 -116.24090 10346 ft 200 kts 293°
2026-05-04 23:15 47.62482 -116.26003 10346 ft 199 kts 293°
2026-05-04 23:15 47.62995 -116.27908 10350 ft 199 kts 293°
2026-05-04 23:15 47.63510 -116.29821 10346 ft 200 kts 293°
2026-05-04 23:16 47.64021 -116.31726 10345 ft 199 kts 292°
2026-05-04 23:16 47.64533 -116.33626 10345 ft 198 kts 293°
2026-05-04 23:16 47.65043 -116.35529 10351 ft 199 kts 293°
2026-05-04 23:16 47.65549 -116.37412 10350 ft 199 kts 293°
2026-05-04 23:17 47.66068 -116.39345 10351 ft 199 kts 292°
2026-05-04 23:17 47.66578 -116.41252 10363 ft 199 kts 292°
2026-05-04 23:17 47.67080 -116.43131 10369 ft 198 kts 292°
2026-05-04 23:17 47.67580 -116.45006 10320 ft 193 kts 293°
2026-05-04 23:18 47.68081 -116.46881 10079 ft 197 kts 293°
2026-05-04 23:18 47.68591 -116.48780 9864 ft 198 kts 292°
2026-05-04 23:18 47.69099 -116.50672 9645 ft 197 kts 292°
2026-05-04 23:18 47.69602 -116.52557 9402 ft 197 kts 292°
2026-05-04 23:19 47.70106 -116.54450 9163 ft 198 kts 292°
2026-05-04 23:19 47.70614 -116.56360 8944 ft 199 kts 292°
2026-05-04 23:19 47.71107 -116.58281 8724 ft 200 kts 289°
2026-05-04 23:19 47.71526 -116.60250 8518 ft 200 kts 288°
2026-05-04 23:20 47.71933 -116.62232 8317 ft 201 kts 288°
2026-05-04 23:20 47.72340 -116.64223 8124 ft 201 kts 288°
2026-05-04 23:20 47.72742 -116.66214 7939 ft 201 kts 288°
2026-05-04 23:20 47.73145 -116.68208 7737 ft 201 kts 288°
2026-05-04 23:21 47.73547 -116.70202 7539 ft 201 kts 288°
2026-05-04 23:21 47.73953 -116.72203 7313 ft 203 kts 288°
2026-05-04 23:21 47.74358 -116.74204 7132 ft 202 kts 288°
2026-05-04 23:21 47.74764 -116.76204 6971 ft 202 kts 288°
2026-05-04 23:22 47.75159 -116.78172 6807 ft 201 kts 288°
2026-05-04 23:22 47.75560 -116.80174 6629 ft 202 kts 288°
2026-05-04 23:22 47.75964 -116.82175 6464 ft 202 kts 288°
2026-05-04 23:22 47.76368 -116.84174 6310 ft 201 kts 288°
2026-05-04 23:23 47.76764 -116.86163 6168 ft 200 kts 288°
2026-05-04 23:23 47.77161 -116.88135 6017 ft 198 kts 288°
2026-05-04 23:23 47.77550 -116.90095 5862 ft 197 kts 288°
2026-05-04 23:23 47.77934 -116.92037 5706 ft 194 kts 288°
2026-05-04 23:24 47.78305 -116.93944 5593 ft 191 kts 288°
2026-05-04 23:24 47.78675 -116.95835 5476 ft 190 kts 288°
2026-05-04 23:24 47.79047 -116.97718 5339 ft 189 kts 288°
2026-05-04 23:24 47.79413 -116.99588 5226 ft 187 kts 288°
2026-05-04 23:25 47.79761 -117.01450 5111 ft 186 kts 288°
2026-05-04 23:25 47.80115 -117.03310 5018 ft 187 kts 288°
2026-05-04 23:25 47.80471 -117.05154 4901 ft 184 kts 288°
2026-05-04 23:25 47.80828 -117.06961 4806 ft 185 kts 288°
2026-05-04 23:26 47.81197 -117.08805 4678 ft 186 kts 288°
2026-05-04 23:26 47.81569 -117.10646 4530 ft 185 kts 288°
2026-05-04 23:26 47.81935 -117.12480 4440 ft 185 kts 288°
2026-05-04 23:26 47.82293 -117.14321 4333 ft 186 kts 288°
2026-05-04 23:27 47.82651 -117.16168 4220 ft 185 kts 288°
2026-05-04 23:27 47.82996 -117.18011 4144 ft 184 kts 288°
2026-05-04 23:27 47.83343 -117.19851 4117 ft 184 kts 288°
2026-05-04 23:27 47.83685 -117.21689 4029 ft 183 kts 288°
2026-05-04 23:28 47.84018 -117.23510 3928 ft 181 kts 288°
2026-05-04 23:28 47.84335 -117.25314 3846 ft 179 kts 288°
2026-05-04 23:28 47.84652 -117.27084 3781 ft 176 kts 289°
2026-05-04 23:28 47.85007 -117.28819 3728 ft 175 kts 291°
2026-05-04 23:29 47.85420 -117.30522 3668 ft 175 kts 293°
2026-05-04 23:29 47.85832 -117.32198 3580 ft 175 kts 293°
2026-05-04 23:29 47.86262 -117.33890 3495 ft 175 kts 293°
2026-05-04 23:29 47.86685 -117.35588 3421 ft 175 kts 293°
2026-05-04 23:30 47.87117 -117.37277 3333 ft 175 kts 294°
2026-05-04 23:30 47.87607 -117.38942 3264 ft 174 kts 297°
2026-05-04 23:30 47.88138 -117.40515 3240 ft 166 kts 300°
2026-05-04 23:30 47.88706 -117.41949 3247 ft 158 kts 310°
2026-05-04 23:31 47.89550 -117.42934 3237 ft 150 kts 341°
2026-05-04 23:31 47.90556 -117.43122 3174 ft 146 kts
2026-05-04 23:31 47.91539 -117.43062 3029 ft 130 kts
2026-05-04 23:31 47.92360 -117.43087 2855 ft 110 kts
2026-05-04 23:32 47.93110 -117.43123 2713 ft 109 kts
2026-05-04 23:32 47.93864 -117.43094 2564 ft 107 kts
2026-05-04 23:32 47.94594 -117.43099 2459 ft 105 kts
2026-05-04 23:32 47.95318 -117.43109 2338 ft 101 kts
2026-05-04 23:33 47.95975 -117.43114 2208 ft 85 kts
2026-05-04 23:33 47.96446 -117.43115 2194 ft 46 kts 359°
2026-05-04 23:33 47.96668 -117.43116 2198 ft 17 kts 359°
2026-05-04 23:33 47.96704 -117.43252 2198 ft 19 kts 271°
2026-05-04 23:34 47.96643 -117.43335 2198 ft 13 kts 179°
2026-05-04 23:34 47.96585 -117.43362 2197 ft 7 kts 258°
2026-05-04 23:34 47.96568 -117.43382 2196 ft 4 kts 178°
2026-05-04 23:34 47.96560 -117.43382 2196 ft 0 kts 180°
2026-05-04 23:42 47.96556 -117.43380 2196 ft 5 kts 158°
2026-05-04 23:42 47.96460 -117.43335 2193 ft 23 kts 179°
2026-05-04 23:43 47.96284 -117.43332 2194 ft 26 kts 178°
2026-05-04 23:43 47.96178 -117.43369 2194 ft 0 kts 136°
2026-05-04 23:44 47.96176 -117.43366 2194 ft 4 kts 136°
2026-05-04 23:44 47.96100 -117.43328 2192 ft 14 kts 168°
2026-05-04 23:45 47.96060 -117.43292 2192 ft 11 kts 132°
2026-05-04 23:45 47.96031 -117.43137 2194 ft 12 kts 71°
2026-05-04 23:45 47.96220 -117.43115 2192 ft 62 kts
2026-05-04 23:45 47.96813 -117.43113 2220 ft 99 kts
2026-05-04 23:46 47.97582 -117.43121 2378 ft 121 kts
2026-05-04 23:46 47.98473 -117.43149 2617 ft 132 kts
2026-05-04 23:46 47.99319 -117.42686 2945 ft 135 kts 38°
2026-05-04 23:46 47.99976 -117.41649 3174 ft 143 kts 54°
2026-05-04 23:47 48.00578 -117.40368 3293 ft 159 kts 57°
2026-05-04 23:47 48.01227 -117.38935 3364 ft 174 kts 57°
2026-05-04 23:47 48.01912 -117.37396 3415 ft 181 kts 58°
2026-05-04 23:47 48.02599 -117.35781 3449 ft 188 kts 58°
2026-05-04 23:48 48.03326 -117.34097 3489 ft 194 kts 57°
2026-05-04 23:48 48.04069 -117.32414 3504 ft 195 kts 57°
2026-05-04 23:48 48.04828 -117.30704 3495 ft 199 kts 57°
2026-05-04 23:48 48.05582 -117.28965 3503 ft 200 kts 57°
2026-05-04 23:49 48.06331 -117.27231 3502 ft 202 kts 57°
2026-05-04 23:49 48.07100 -117.25444 3490 ft 206 kts 57°
2026-05-04 23:49 48.07869 -117.23635 3496 ft 207 kts 57°
2026-05-04 23:49 48.08643 -117.21787 3506 ft 210 kts 57°
2026-05-04 23:50 48.09426 -117.19946 3493 ft 216 kts 57°
2026-05-04 23:50 48.10234 -117.18077 3487 ft 214 kts 57°
2026-05-04 23:50 48.11054 -117.16206 3496 ft 213 kts 57°
2026-05-04 23:50 48.11860 -117.14361 3496 ft 210 kts 57°
2026-05-04 23:51 48.12662 -117.12528 3507 ft 211 kts 57°
2026-05-04 23:51 48.13463 -117.10695 3501 ft 209 kts 57°
2026-05-04 23:51 48.14242 -117.08862 3510 ft 210 kts 57°
2026-05-04 23:51 48.15036 -117.07009 3513 ft 211 kts 57°
2026-05-04 23:52 48.15828 -117.05163 3507 ft 211 kts 60°
2026-05-04 23:52 48.16258 -117.03043 3507 ft 217 kts 81°
2026-05-04 23:52 48.16422 -117.00813 3509 ft 216 kts 84°
2026-05-04 23:52 48.16563 -116.98571 3505 ft 216 kts 84°
2026-05-04 23:53 48.16700 -116.96334 3511 ft 215 kts 84°
2026-05-04 23:53 48.16649 -116.94092 3496 ft 217 kts 99°
2026-05-04 23:53 48.16316 -116.91899 3507 ft 215 kts 103°
2026-05-04 23:53 48.15946 -116.89730 3501 ft 214 kts 103°
2026-05-04 23:54 48.15563 -116.87589 3523 ft 212 kts 103°
2026-05-04 23:54 48.15203 -116.85433 3524 ft 214 kts 98°
2026-05-04 23:54 48.15127 -116.83206 3505 ft 215 kts 85°
2026-05-04 23:54 48.15389 -116.80992 3506 ft 216 kts 75°
2026-05-04 23:55 48.15807 -116.78886 3523 ft 213 kts 72°
2026-05-04 23:55 48.16274 -116.76783 3510 ft 212 kts 69°
2026-05-04 23:55 48.17851 -116.73017 3518 ft 215 kts 52°
2026-05-04 23:56 48.18797 -116.71277 3498 ft 216 kts 51°
2026-05-04 23:56 48.19753 -116.69557 3501 ft 212 kts 51°
2026-05-04 23:56 48.20705 -116.67857 3503 ft 213 kts 51°
2026-05-04 23:56 48.21656 -116.66151 3512 ft 213 kts 51°
2026-05-04 23:57 48.22610 -116.64463 3522 ft 212 kts 51°
2026-05-04 23:57 48.23561 -116.62782 3499 ft 204 kts 51°
2026-05-04 23:57 48.24368 -116.61162 3467 ft 188 kts 67°
2026-05-04 23:57 48.24898 -116.59507 3483 ft 173 kts 29°
2026-05-04 23:58 48.26025 -116.59705 3473 ft 167 kts 352°
2026-05-04 23:58 48.27010 -116.59219 3316 ft 150 kts 57°
2026-05-04 23:58 48.27479 -116.57998 2865 ft 124 kts 29°
2026-05-04 23:58 48.28237 -116.57619 2505 ft 103 kts 28°
2026-05-04 23:59 48.28771 -116.57121 2300 ft 85 kts 32°
2026-05-04 23:59 48.29275 -116.56656 2139 ft 80 kts 33°
2026-05-04 23:59 48.29581 -116.56369 2129 ft 21 kts 32°
2026-05-04 23:59 48.29615 -116.56253 2128 ft 6 kts 109°
2026-05-05 00:00 48.29668 -116.56188 2127 ft 21 kts 30°
2026-05-05 00:00 48.29709 -116.56151 2127 ft 21 kts 31°
2026-05-05 00:00 48.29824 -116.55955 2127 ft 12 kts 115°
2026-05-05 00:00 48.29795 -116.55939 2127 ft 0 kts 185°